KF0AIT Weather Reports


Display with metric or nautical units.
time (UTC)temp
F
wind
direction
speed
MPH
gust
MPH
rain 1hr
in
rain 24hr
in
rain mn
in
humidity
%
barometer
mb
20260905084503 83 0 0.0 0.0 0.00 0.00 0.00 52 1010.2
20260905083624 83 0 0.0 0.0 0.00 0.00 0.00 52 1010.2
20260905082703 83 0 0.0 0.0 0.00 0.00 0.00 52 1010.2
20260905081803 83 0 0.0 0.0 0.00 0.00 0.00 52 1010.2
20260905080903 83 112 0.0 1.0 0.00 0.00 0.00 52 1010.2
20260905080003 83 112 0.0 2.0 0.00 0.00 0.00 52 1010.2
20260905075403 83 112 0.0 2.0 0.00 0.00 0.00 52 1010.2
20260905074503 83 0 0.0 0.0 0.00 0.00 0.00 52 1010.2
20260905073603 83 0 0.0 0.0 0.00 0.00 0.00 52 1010.2
20260905072703 83 0 0.0 0.0 0.00 0.00 0.00 52 1010.2
20260905071803 83 90 0.0 2.0 0.00 0.00 0.00 52 1010.2
20260905070924 83 0 0.0 0.0 0.00 0.00 0.00 52 1010.2
20260905070003 83 0 0.0 0.0 0.00 0.00 0.00 52 1010.2
20260905065403 83 0 0.0 0.0 0.00 0.00 0.00 52 1010.2
20260905064503 83 0 0.0 0.0 0.00 0.00 0.00 52 1010.2
20260905063624 83 0 0.0 0.0 0.00 0.00 0.00 52 1010.2
20260905062703 83 0 0.0 0.0 0.00 0.00 0.00 52 1010.2
20260905061803 83 0 0.0 0.0 0.00 0.00 0.00 52 1010.2
20260905060903 83 0 0.0 0.0 0.00 0.00 0.00 52 1010.2
20260905060003 83 0 0.0 0.0 0.00 0.00 0.00 52 1010.2
20260905055403 83 0 0.0 0.0 0.00 0.00 0.00 52 1010.2
20260905054503 83 0 0.0 0.0 0.00 0.00 0.00 52 1010.2
20260905053603 83 0 0.0 0.0 0.00 0.00 0.00 52 1010.2
20260905052703 83 0 0.0 0.0 0.00 0.00 0.00 52 1010.2
20260905051803 83 0 0.0 0.0 0.00 0.00 0.00 52 1010.2
20260905050924 83 0 0.0 0.0 0.00 0.00 0.00 52 1010.2
20260905050003 83 0 0.0 0.0 0.00 0.00 0.00 52 1009.2
20260905045403 83 0 0.0 0.0 0.00 0.00 0.00 52 1009.2
20260905044503 83 0 0.0 0.0 0.00 0.00 0.00 52 1009.2
20260905043603 83 0 0.0 0.0 0.00 0.00 0.00 52 1009.2
20260905042703 83 0 0.0 0.0 0.00 0.00 0.00 52 1009.2
20260905041824 83 0 0.0 0.0 0.00 0.00 0.00 52 1009.2
20260905040903 83 0 0.0 0.0 0.00 0.00 0.00 52 1009.2
20260905040003 83 0 0.0 0.0 0.00 0.00 0.00 52 1009.2
20260905035403 83 0 0.0 0.0 0.00 0.00 0.00 52 1009.2
20260905034524 83 0 0.0 0.0 0.00 0.00 0.00 52 1009.2
20260905033603 83 0 0.0 0.0 0.00 0.00 0.00 52 1009.2
20260905032703 83 0 0.0 0.0 0.00 0.00 0.00 52 1009.2
20260905031824 83 0 0.0 0.0 0.00 0.00 0.00 52 1009.2
20260905030924 83 0 0.0 0.0 0.00 0.00 0.00 52 1009.2
20260905030003 83 90 0.0 2.0 0.00 0.00 0.00 52 1009.2
20260905025403 83 90 2.0 2.0 0.00 0.00 0.00 52 1009.2
20260905024503 83 0 0.0 0.0 0.00 0.00 0.00 52 1009.2
20260905023603 83 0 0.0 0.0 0.00 0.00 0.00 52 1009.2
20260905022703 83 90 0.0 3.0 0.00 0.00 0.00 52 1009.2
20260905021803 83 0 0.0 0.0 0.00 0.00 0.00 52 1009.2
20260905020924 83 0 0.0 0.0 0.00 0.00 0.00 52 1009.2
20260905020024 83 67 0.0 1.0 0.00 0.00 0.00 52 1008.1
20260905015424 83 67 0.0 1.0 0.00 0.00 0.00 52 1008.1
20260905014503 83 67 0.0 1.0 0.00 0.00 0.00 52 1008.1
20260905013624 83 0 0.0 0.0 0.00 0.00 0.00 52 1008.1
20260905012724 83 0 0.0 0.0 0.00 0.00 0.00 52 1008.1
20260905011824 83 0 0.0 0.0 0.00 0.00 0.00 52 1008.1
20260905010903 83 0 0.0 0.0 0.00 0.00 0.00 52 1008.1
20260905010004 83 67 0.0 1.0 0.00 0.00 0.00 52 1008.1
20260905005424 83 67 0.0 1.0 0.00 0.00 0.00 52 1008.1
20260905004503 83 0 0.0 0.0 0.00 0.00 0.00 52 1008.1
20260905003603 83 0 0.0 0.0 0.00 0.00 0.00 52 1008.1
20260905002703 83 67 0.0 1.0 0.00 0.00 0.00 52 1008.1
20260905001803 83 67 1.0 1.0 0.00 0.00 0.00 52 1008.1
20260905000903 83 67 1.0 1.0 0.00 0.00 0.00 52 1008.1
20260905000003 83 0 0.0 0.0 0.00 0.00 0.00 52 1008.1
20260904235403 83 0 0.0 0.0 0.00 0.00 0.00 52 1008.1
20260904234503 83 0 0.0 0.0 0.00 0.00 0.00 52 1008.1
20260904233624 83 0 0.0 0.0 0.00 0.00 0.00 52 1008.1
20260904232703 83 67 0.0 1.0 0.00 0.00 0.00 52 1008.1
20260904231803 83 0 0.0 0.0 0.00 0.00 0.00 52 1008.1
20260904230903 83 0 0.0 0.0 0.00 0.00 0.00 52 1008.1
20260904230003 83 73 0.0 2.0 0.00 0.00 0.00 52 1008.1
20260904225403 83 73 2.0 2.0 0.00 0.00 0.00 52 1008.1
20260904224503 83 67 0.0 2.0 0.00 0.00 0.00 52 1008.1
20260904223603 83 45 0.0 1.0 0.00 0.00 0.00 52 1008.1
20260904222703 83 90 0.0 2.0 0.00 0.00 0.00 52 1008.1
20260904221803 83 45 0.0 1.0 0.00 0.00 0.00 52 1008.1
20260904220903 83 0 0.0 0.0 0.00 0.00 0.00 52 1008.1
20260904220003 83 337 0.0 2.0 0.00 0.00 0.00 52 1008.1
20260904215403 83 337 0.0 1.0 0.00 0.00 0.00 52 1008.1
20260904214503 83 337 0.0 1.0 0.00 0.00 0.00 52 1008.1
20260904213603 83 0 0.0 0.0 0.00 0.00 0.00 52 1008.1
20260904212703 83 0 0.0 0.0 0.00 0.00 0.00 52 1008.1
20260904211803 83 0 0.0 0.0 0.00 0.00 0.00 52 1008.1
20260904210924 83 0 0.0 0.0 0.00 0.00 0.00 52 1008.1
20260904210003 83 337 0.0 1.0 0.00 0.00 0.00 52 1008.1
20260904205403 83 337 0.0 1.0 0.00 0.00 0.00 52 1008.1
20260904204503 83 0 0.0 0.0 0.00 0.00 0.00 52 1008.1
20260904203603 83 0 0.0 0.0 0.00 0.00 0.00 52 1008.1
20260904202703 83 337 0.0 2.0 0.00 0.00 0.00 52 1008.1
20260904201803 83 4 2.0 2.0 0.00 0.00 0.00 52 1008.1
20260904200903 83 67 0.0 1.0 0.00 0.00 0.00 52 1008.1
20260904200003 83 67 0.0 3.0 0.00 0.00 0.00 52 1008.1
20260904195403 83 0 0.0 0.0 0.00 0.00 0.00 52 1008.1
20260904194503 83 67 0.0 1.0 0.00 0.00 0.00 52 1008.1
20260904193603 83 0 0.0 0.0 0.00 0.00 0.00 52 1008.1
20260904192724 83 67 0.0 4.0 0.00 0.00 0.00 52 1009.2
20260904191824 83 0 0.0 0.0 0.00 0.00 0.00 52 1009.2
20260904190903 83 22 0.0 1.0 0.00 0.00 0.00 52 1009.2
20260904190024 83 45 0.0 4.0 0.00 0.00 0.00 52 1009.2
20260904185403 83 53 0.0 4.0 0.00 0.00 0.00 52 1009.2
20260904184503 83 67 0.0 1.0 0.00 0.00 0.00 52 1009.2
20260904183603 83 58 1.0 1.0 0.00 0.00 0.00 52 1009.2
20260904182703 83 0 0.0 0.0 0.00 0.00 0.00 52 1008.1
20260904181803 83 0 0.0 0.0 0.00 0.00 0.00 52 1008.1
20260904180924 83 0 0.0 0.0 0.00 0.00 0.00 52 1008.1
20260904180024 83 0 0.0 0.0 0.00 0.00 0.00 52 1008.1
20260904175403 83 0 0.0 0.0 0.00 0.00 0.00 52 1008.1
20260904174503 83 22 0.0 1.0 0.00 0.00 0.00 52 1008.1
20260904173603 83 22 0.0 1.0 0.00 0.00 0.00 52 1008.1
20260904172724 83 22 1.0 1.0 0.00 0.00 0.00 55 1008.1
20260904171803 83 0 0.0 0.0 0.00 0.00 0.00 55 1008.1
20260904170903 82 0 0.0 0.0 0.00 0.00 0.00 58 1008.1
20260904170003 81 0 0.0 0.0 0.00 0.00 0.00 58 1008.1
20260904165403 81 360 0.0 1.0 0.00 0.00 0.00 58 1008.1
20260904164503 80 360 0.0 3.0 0.00 0.00 0.00 62 1008.1
20260904163603 80 0 0.0 0.0 0.00 0.00 0.00 64 1008.1
20260904162724 79 0 0.0 0.0 0.00 0.00 0.00 65 1008.1
20260904161803 79 0 0.0 0.0 0.00 0.00 0.00 68 1008.1
20260904160903 78 0 0.0 0.0 0.00 0.00 0.00 70 1008.1
20260904160003 78 67 0.0 1.0 0.00 0.00 0.00 70 1008.1
20260904155403 77 67 0.0 1.0 0.00 0.00 0.00 72 1008.1
20260904154504 77 0 0.0 0.0 0.00 0.00 0.00 76 1008.1
20260904153603 76 45 0.0 1.0 0.00 0.00 0.00 80 1008.1
20260904152703 76 0 0.0 0.0 0.00 0.00 0.00 82 1008.1
20260904151803 75 0 0.0 0.0 0.00 0.00 0.00 83 1008.1
20260904150903 74 0 0.0 0.0 0.00 0.00 0.00 83 1008.1
20260904150003 74 45 0.0 1.0 0.00 0.00 0.00 84 1008.1
20260904145424 74 0 0.0 0.0 0.00 0.00 0.00 84 1008.1
20260904144503 74 0 0.0 0.0 0.00 0.00 0.00 84 1008.1
20260904143603 73 67 0.0 1.0 0.00 0.00 0.00 85 1008.1
20260904142703 73 67 0.0 1.0 0.00 0.00 0.00 85 1007.1
20260904141803 72 0 0.0 0.0 0.00 0.00 0.00 84 1007.1
20260904140903 72 0 0.0 0.0 0.00 0.00 0.00 85 1008.1
20260904140024 71 0 0.0 0.0 0.00 0.00 0.00 85 1007.1
20260904135403 71 0 0.0 0.0 0.00 0.00 0.00 85 1007.1
20260904134503 71 0 0.0 0.0 0.00 0.00 0.00 86 1008.1
20260904133603 71 0 0.0 0.0 0.00 0.00 0.00 86 1008.1
20260904132703 71 0 0.0 0.0 0.00 0.00 0.00 86 1008.1
20260904131803 70 0 0.0 0.0 0.00 0.00 0.00 86 1008.1
20260904130903 70 0 0.0 0.0 0.00 0.00 0.00 86 1008.1
20260904130003 70 0 0.0 0.0 0.00 0.00 0.00 86 1008.1
20260904125403 70 0 0.0 0.0 0.00 0.00 0.00 86 1008.1
20260904124504 70 0 0.0 0.0 0.00 0.00 0.00 88 1007.1
20260904123625 70 0 0.0 0.0 0.00 0.00 0.00 88 1007.1
20260904122703 70 0 0.0 0.0 0.00 0.00 0.00 88 1007.1
20260904121803 70 0 0.0 0.0 0.00 0.00 0.00 88 1007.1
20260904120924 70 0 0.0 0.0 0.00 0.00 0.00 88 1007.1
20260904120025 70 0 0.0 0.0 0.00 0.00 0.00 88 1007.1
20260904115403 70 0 0.0 0.0 0.00 0.00 0.00 88 1007.1
20260904114503 70 0 0.0 0.0 0.00 0.00 0.00 88 1007.1
20260904113603 70 0 0.0 0.0 0.00 0.00 0.00 88 1007.1
20260904112703 70 0 0.0 0.0 0.00 0.00 0.00 89 1006.0
20260904111803 70 0 0.0 0.0 0.00 0.00 0.00 88 1006.0
20260904110924 70 0 0.0 0.0 0.00 0.00 0.00 87 1006.0
20260904110003 70 0 0.0 0.0 0.00 0.00 0.00 86 1006.0
20260904105403 70 0 0.0 0.0 0.00 0.00 0.00 86 1006.0
20260904104503 70 0 0.0 0.0 0.00 0.00 0.00 85 1006.0
20260904103603 70 0 0.0 0.0 0.00 0.00 0.00 85 1006.0
20260904102724 70 0 0.0 0.0 0.00 0.00 0.00 85 1006.0
20260904101803 70 0 0.0 0.0 0.00 0.00 0.00 85 1006.0
20260904100903 70 0 0.0 0.0 0.00 0.00 0.00 84 1006.0
20260904100003 71 0 0.0 0.0 0.00 0.00 0.00 83 1005.0
20260904095403 71 0 0.0 0.0 0.00 0.00 0.00 83 1005.0
20260904094503 71 0 0.0 0.0 0.00 0.00 0.00 83 1005.0
20260904093603 71 0 0.0 0.0 0.00 0.00 0.00 82 1005.0
20260904092703 71 157 0.0 1.0 0.00 0.00 0.00 82 1005.0
20260904091803 71 0 0.0 0.0 0.00 0.00 0.00 82 1005.0
20260904090903 71 0 0.0 0.0 0.00 0.00 0.00 82 1005.0
20260904090003 71 0 0.0 0.0 0.00 0.00 0.00 81 1005.0
20260904085403 72 0 0.0 0.0 0.00 0.00 0.00 81 1005.0